Regional Weather Roundup
Issued by NWS

Home | Current Version | Previous Version | Graphics & Text | Print | Product List | Glossary On
Versions: 1 2 3 4 5 6 7 8 9 10 11 12 13 14 15 16 17 18 19 20 21 22 23 24 25 26 27 28 29 30 31 32 33 34 35 36 37 38 39 40 41 42 43 44 45 46 47 48 49 50
000
ASUS45 KCYS 020610
RWRWY

WYOMING REGIONAL WEATHER ROUNDUP
NATIONAL WEATHER SERVICE CHEYENNE WY
1100 PM MST SUN MAR 01 2015

NOTE:  "FAIR" INDICATES FEW OR NO CLOUDS BELOW 12,000 FEET
WITH NO SIGNIFICANT WEATHER AND/OR OBSTRUCTIONS TO VISIBILITY.

WYZ001-020700-
YELLOWSTONE NATIONAL PARK

CITY           SKY/WX    TMP DP  RH WIND       PRES   REMARKS
LK YELLOWSTONE   N/A     -6 -10  83 NW3       29.99F
6HR MIN TEMP:  -6; 6HR MAX TEMP:  20;

W YELLOWSTONE  NOT AVBL

$$
WYZ002>013-054>058-071-098>099-020700-
NORTHERN WYOMING

CITY           SKY/WX    TMP DP  RH WIND       PRES   REMARKS
JACKSON        FAIR       3   1  92 N13       30.01F WCI -14
CODY           FAIR      14   9  79 S8        30.01F WCI   3
GREYBULL       FAIR      18  10  71 SE3       30.10F
6HR MIN TEMP:  18; 6HR MAX TEMP:  31;

WORLAND        FAIR      19  11  70 CALM      30.08F
6HR MIN TEMP:  18; 6HR MAX TEMP:  29;

SHERIDAN       FAIR      11   3  70 SW3       30.05F
6HR MIN TEMP:   9; 6HR MAX TEMP:  25;

BUFFALO        FAIR      18   6  59 S16       30.01F WCI   3
6HR MIN TEMP:  16; 6HR MAX TEMP:  22;

GILLETTE       FAIR      17   8  67 S13       30.09F WCI   4
6HR MIN TEMP:  10; 6HR MAX TEMP:  27;

HULETT         FAIR      14   3  62 CALM      30.13F
NEWCASTLE      FAIR      19   3  49 E14       30.17F WCI   6

$$
WYZ014>020-022>026-101>103-020700-
CENTRAL WYOMING

CITY           SKY/WX    TMP DP  RH WIND       PRES   REMARKS
BIG PINEY      FAIR      16  12  84 CALM      30.03F
6HR MIN TEMP:  15; 6HR MAX TEMP:  31;

PINEDALE       FAIR       5   1  85 W5        30.04F WCI  -4
DUBOIS         FAIR      10   5  79 NW18      29.97F WCI  -8
LANDER         FAIR      13   6  74 S3        30.07F
6HR MIN TEMP:  12; 6HR MAX TEMP:  23;

RIVERTON       FAIR      13   8  81 NW7       30.08F WCI   3
6HR MIN TEMP:  11; 6HR MAX TEMP:  23;

CASPER         FAIR      20  12  71 E3        30.06F
6HR MIN TEMP:  20; 6HR MAX TEMP:  29;

DOUGLAS        FAIR      24  11  57 SE15      30.10F WCI  11
6HR MIN TEMP:  20; 6HR MAX TEMP:  27;


$$
WYZ021-027>030-104>119-020700-
SOUTHERN WYOMING

CITY           SKY/WX    TMP DP  RH WIND       PRES   REMARKS
EVANSTON       CLOUDY    25  19  78 E3        29.99F
6HR MIN TEMP:  25; 6HR MAX TEMP:  29; 6HR PCP: TRACE;

FORT BRIDGER   FAIR      24  22  92 NW5       30.03F WCI  18
ROCK SPRINGS   FAIR      23  16  74 E5        30.01F WCI  17
6HR MIN TEMP:  23; 6HR MAX TEMP:  30;

DIXON          CLOUDY    31  26  81 NE3       30.06S
RAWLINS        CLOUDY    22  15  75 SW5       30.04S WCI  16
6HR MIN TEMP:  22; 6HR MAX TEMP:  32;

SARATOGA       CLOUDY    27  21  80 S6        30.03S WCI  20
LARAMIE        FAIR      14  11  87 S21       30.04F WCI  -4
6HR MIN TEMP:  14; 6HR MAX TEMP:  19;

CHEYENNE       CLOUDY    19  14  81 S10       30.14F WCI   7
6HR MIN TEMP:  19; 6HR MAX TEMP:  23;

TORRINGTON     CLOUDY    25  14  63 SE8       30.21F WCI  16
6HR MIN TEMP:  21; 6HR MAX TEMP:  33;

PINE BLUFFS    FAIR      21  18  86 S7        30.20F WCI  13

$$


USA.gov is the U.S. government's official web portal to all federal, state and local government web resources and services.